Weather History for Tampa Macdill AFB, FL

Change the Weather History Date:

Thursday, November 7, 2013

  Actual Average Record
Temperature  
Mean Temperature 74 °F -  
Max Temperature 82 °F 77 °F 87 °F (1996)
Min Temperature 66 °F 60 °F 44 °F (2010)
Cooling Degree Days 9    
Growing Degree Days 24 (Base 50)    
Moisture  
Dew Point 69 °F    
Average Humidity 89    
Maximum Humidity 100    
Minimum Humidity 66    
Precipitation  
Precipitation 0.00 in - - ()
Sea Level Pressure  
Sea Level Pressure 30.04 in    
Wind  
Wind Speed 6 mph (NNE)    
Max Wind Speed 9 mph    
Max Gust Speed -    
Visibility 10 miles    
Events      
Averages and records for this station are not official NWS values.
T = Trace of Precipitation, MM = Missing Value Source: NWS Daily Summary

Daily Weather History Graph

Daily Weather History Graph

Search for Another Location

Airport:

Trip Planner

Search our weather history database for the weather conditions in past years. The results will help you decide how hot, cold, wet, or windy it might be!

Date:

Astronomy

Nov. 07, 2013 Rise Set
Actual Time 6:45 AM EST 5:41 PM EST
Civil Twilight 6:21 AM EST 6:06 PM EST
Nautical Twilight 5:53 AM EST 6:34 PM EST
Astronomical Twilight 5:25 AM EST 7:01 PM EST
Moon 10:48 AM EST (11/7) 9:55 PM EST (11/7)
Length of Visible Light 11h 44m
Length of Day
10h 56m
Waxing Crescent, 22% of the Moon is Illuminated
Nov 7
Waxing Crescent
Nov 10
First Quarter
Nov 17
Full
Nov 25
Last Quarter
Dec 2
New

Hourly Weather History & Observations

Time (EST) Temp. Heat Index Dew Point Humidity Pressure Visibility Wind Dir Wind Speed Gust Speed Precip Events Conditions
12:58 AM 68.5 °F - 68.2 °F 99% 30.06 in 10.0 mi ENE 6.9 mph - N/A   Clear
1:58 AM 68.9 °F - 68.9 °F 100% 30.05 in 10.0 mi ENE 8.1 mph - N/A   Clear
2:58 AM 67.1 °F - 66.9 °F 99% 30.04 in 10.0 mi ENE 8.1 mph - N/A   Clear
3:58 AM 67.3 °F - 67.3 °F 100% 30.02 in 10.0 mi ENE 6.9 mph - N/A   Clear
4:58 AM 67.5 °F - 67.5 °F 100% 30.02 in 10.0 mi ENE 6.9 mph - N/A   Clear
5:58 AM 67.1 °F - 67.1 °F 100% 30.03 in 10.0 mi ENE 6.9 mph - N/A   Clear
6:58 AM 66.4 °F - 66.4 °F 100% 30.05 in 10.0 mi NE 4.6 mph - N/A   Clear
7:58 AM 71.2 °F - 71.2 °F 100% 30.07 in 10.0 mi Calm Calm - N/A   Clear
8:58 AM 72.1 °F - 70.3 °F 94% 30.08 in 10.0 mi East 3.5 mph - N/A   Clear
9:58 AM 74.1 °F - 72.7 °F 95% 30.09 in 10.0 mi Variable 1.2 mph - N/A   Clear
10:58 AM 81.3 °F 86.1 °F 72.7 °F 75% 30.08 in 10.0 mi Variable 4.6 mph - N/A   Clear
11:58 AM 79.3 °F - 70.3 °F 74% 30.06 in 10.0 mi NNW 6.9 mph - N/A   Clear
12:58 PM 80.4 °F 83.6 °F 69.8 °F 70% 30.04 in 10.0 mi NW 5.8 mph - N/A   Partly Cloudy
1:58 PM 82.0 °F 85.7 °F 69.8 °F 66% 30.01 in 10.0 mi WNW 4.6 mph - N/A   Partly Cloudy
2:58 PM 81.1 °F 85.0 °F 70.9 °F 71% 30.00 in 10.0 mi NNW 9.2 mph - N/A   Clear
3:58 PM 77.9 °F - 70.0 °F 76% 30.00 in 10.0 mi NNW 6.9 mph - N/A   Partly Cloudy
4:58 PM 75.7 °F - 68.9 °F 79% 30.00 in 10.0 mi NNW 5.8 mph - N/A   Partly Cloudy
5:58 PM 74.1 °F - 68.4 °F 82% 30.01 in 10.0 mi North 4.6 mph - N/A   Mostly Cloudy
6:58 PM 72.3 °F - 67.3 °F 84% 30.03 in 10.0 mi North 6.9 mph - N/A   Mostly Cloudy
7:58 PM 71.1 °F - 66.9 °F 87% 30.04 in 10.0 mi North 5.8 mph - N/A   Clear
8:58 PM 70.2 °F - 67.1 °F 90% 30.04 in 10.0 mi North 5.8 mph - N/A   Clear
9:58 PM 69.6 °F - 67.6 °F 93% 30.04 in 10.0 mi North 5.8 mph - N/A   Clear
10:58 PM 68.9 °F - 67.1 °F 94% 30.04 in 10.0 mi North 2.3 mph - N/A   Clear
11:58 PM 69.4 °F - 69.1 °F 99% 30.03 in 10.0 mi North 5.8 mph - N/A   Clear